Weather History for Chicago Executive, IL

Change the Weather History Date:

Tuesday, November 20, 2012

  Actual Average Record
Temperature  
Mean Temperature 46 °F 38 °F  
Max Temperature 57 °F 46 °F 64 °F (2003)
Min Temperature 35 °F 30 °F 14 °F (2014)
Degree Days  
Heating Degree Days 19 27  
Month to date heating degree days 468 454  
Since 1 July heating degree days 1037 975  
Cooling Degree Days 0 0  
Month to date cooling degree days 0 0  
Year to date cooling degree days 1228 789  
Moisture  
Dew Point 40 °F    
Average Humidity 88    
Maximum Humidity 100    
Minimum Humidity 67    
Precipitation  
Precipitation 0.00 in 0.09 in 0.20 in (2007)
Month to date precipitation 0.52 2.02  
Year to date precipitation 19.67 30.65  
Sea Level Pressure  
Sea Level Pressure 30.15 in    
Wind  
Wind Speed 2 mph (NW)    
Max Wind Speed 9 mph    
Max Gust Speed 12 mph    
Visibility 3 miles    
Events Fog    
T = Trace of Precipitation, MM = Missing Value Source: NWS Daily Summary

Daily Weather History Graph

Daily Weather History Graph

Search for Another Location

Airport:

Trip Planner

Search our weather history database for the weather conditions in past years. The results will help you decide how hot, cold, wet, or windy it might be!

Date:

Astronomy

Nov. 20, 2012 Rise Set
Actual Time 6:48 AM CST 4:25 PM CST
Civil Twilight 6:17 AM CST 4:56 PM CST
Nautical Twilight 5:43 AM CST 5:30 PM CST
Astronomical Twilight 5:10 AM CST 6:03 PM CST
Moon 12:18 PM CST (11/20) No Moon Set
Length of Visible Light 10h 38m
Length of Day
9h 37m
First Quarter, 51% of the Moon is Illuminated
Nov 20
First Quarter
Nov 28
Full
Dec 6
Last Quarter
Dec 13
New
Dec 19
First Quarter

Hourly Weather History & Observations

Time (CST) Temp. Dew Point Humidity Pressure Visibility Wind Dir Wind Speed Gust Speed Precip Events Conditions
12:52 AM 48.0 °F 44.1 °F 86% 30.11 in 7.0 mi South 3.5 mph - N/A   Overcast
2:52 AM 48.9 °F 44.1 °F 83% 30.10 in 7.0 mi Calm Calm - N/A   Overcast
3:52 AM 48.9 °F 43.0 °F 80% 30.09 in 7.0 mi Calm Calm - N/A   Overcast
4:52 AM 48.9 °F 43.0 °F 80% 30.10 in 7.0 mi Calm Calm - N/A   Overcast
5:52 AM 48.9 °F 43.0 °F 80% 30.10 in 7.0 mi Calm Calm - N/A   Overcast
6:52 AM 48.9 °F 42.1 °F 77% 30.11 in 6.0 mi West 3.5 mph - N/A   Haze
7:52 AM 50.0 °F 43.0 °F 77% 30.12 in 5.0 mi WNW 3.5 mph - N/A   Haze
8:52 AM 50.0 °F 44.1 °F 80% 30.12 in 4.0 mi WNW 5.8 mph - N/A   Haze
10:52 AM 52.0 °F 45.0 °F 77% 30.12 in 3.0 mi NW 3.5 mph - N/A   Haze
11:52 AM 52.0 °F 45.0 °F 77% 30.12 in 3.0 mi NNW 5.8 mph - N/A   Haze
12:38 PM 53.6 °F 46.4 °F 77% 30.10 in 3.0 mi NW 4.6 mph - N/A   Haze
12:52 PM 55.0 °F 46.0 °F 72% 30.11 in 4.0 mi North 5.8 mph - N/A   Haze
1:52 PM 55.0 °F 45.0 °F 69% 30.10 in 4.0 mi NW 6.9 mph - N/A   Haze
2:17 PM 55.4 °F 44.6 °F 67% 30.10 in 4.0 mi NW 5.8 mph - N/A   Haze
2:52 PM 55.9 °F 45.0 °F 67% 30.11 in 5.0 mi NNW 5.8 mph - N/A   Haze
3:06 PM 53.6 °F 46.4 °F 77% 30.10 in 4.0 mi East 4.6 mph - N/A   Haze
3:52 PM 50.0 °F 45.0 °F 83% 30.13 in 3.0 mi NE 8.1 mph - N/A   Haze
4:52 PM 48.0 °F 44.1 °F 86% 30.15 in 4.0 mi Calm Calm - N/A   Clear
5:52 PM 45.0 °F 42.1 °F 90% 30.17 in 3.0 mi Calm Calm - N/A   Clear
6:50 PM 42.8 °F 42.8 °F 100% 30.16 in 1.0 mi Calm Calm - N/A   Partly Cloudy
6:52 PM 43.0 °F 42.1 °F 97% 30.18 in 1.0 mi Calm Calm - N/A   Scattered Clouds
7:05 PM 41.0 °F 39.2 °F 93% 30.16 in 1.5 mi Calm Calm - N/A   Scattered Clouds
7:24 PM 39.2 °F 37.4 °F 93% 30.16 in 0.5 mi Calm Calm - N/A Fog Fog
7:42 PM 39.2 °F 37.4 °F 93% 30.16 in 1.5 mi Calm Calm - N/A   Scattered Clouds
7:52 PM 41.0 °F 39.9 °F 96% 30.18 in 1.5 mi Calm Calm - N/A   Partly Cloudy
8:06 PM 39.2 °F 39.2 °F 100% 30.17 in 0.8 mi Calm Calm - N/A   Mist
8:18 PM 41.0 °F 39.2 °F 93% 30.17 in 1.2 mi Calm Calm - N/A   Partly Cloudy
8:44 PM 39.2 °F 37.4 °F 93% 30.18 in 3.0 mi Calm Calm - N/A   Scattered Clouds
8:52 PM 39.0 °F 37.9 °F 96% 30.19 in 3.0 mi Calm Calm - N/A   Mostly Cloudy
8:59 PM 39.2 °F 37.4 °F 93% 30.18 in 2.0 mi Calm Calm - N/A   Mostly Cloudy
9:22 PM 37.4 °F 37.4 °F 100% 30.19 in 2.0 mi Calm Calm - N/A   Partly Cloudy
9:50 PM 37.4 °F 35.6 °F 93% 30.19 in 2.0 mi Calm Calm - N/A   Scattered Clouds
9:52 PM 37.0 °F 36.0 °F 96% 30.20 in 2.0 mi Calm Calm - N/A   Scattered Clouds
9:59 PM 37.4 °F 35.6 °F 93% 30.18 in 0.2 mi Calm Calm - N/A Fog Fog
10:14 PM 37.4 °F 37.4 °F 100% 30.19 in 1.2 mi Calm Calm - N/A   Mostly Cloudy
10:23 PM 37.4 °F 37.4 °F 100% 30.19 in 1.5 mi Calm Calm - N/A   Scattered Clouds
10:39 PM 35.6 °F 35.6 °F 100% 30.18 in 0.8 mi Calm Calm - N/A   Clear
10:48 PM 37.4 °F 35.6 °F 93% 30.19 in 1.0 mi Calm Calm - N/A   Mist
10:49 PM 37.4 °F 35.6 °F 93% 30.19 in 1.0 mi Calm Calm - N/A   Mist
10:52 PM 37.9 °F 36.0 °F 93% 30.20 in 1.0 mi Calm Calm - N/A   Mist
11:04 PM 37.4 °F 35.6 °F 93% 30.18 in 2.0 mi Calm Calm - N/A   Partly Cloudy
11:11 PM 35.6 °F 35.6 °F 100% 30.18 in 1.0 mi Calm Calm - N/A   Mist
11:18 PM 37.4 °F 35.6 °F 93% 30.19 in 0.2 mi Calm Calm - N/A Fog Fog
11:48 PM 35.6 °F 35.6 °F 100% 30.20 in 1.5 mi Calm Calm - N/A   Partly Cloudy
11:52 PM 37.0 °F 36.0 °F 96% 30.21 in 2.0 mi Calm Calm - N/A   Partly Cloudy